W0LTA Weather Reports


Display with metric or nautical units.
time (UTC)temp
F
wind
direction
speed
MPH
gust
MPH
rain 1hr
in
rain 24hr
in
rain mn
in
humidity
%
barometer
mb
20171023151517 43 122 1.0 4.0 0.00 0.00 0.00 64 1039.2
20171023151014 42 122 1.0 5.0 0.00 0.00 0.00 64 1039.0
20171023150510 42 134 2.0 7.0 0.00 0.00 0.00 64 1039.2
20171023145524 42 81 3.0 8.0 0.00 0.00 0.00 65 1038.9
20171023145023 42 159 1.0 5.0 0.00 0.00 0.00 66 1038.7
20171023144519 42 159 1.0 5.0 0.00 0.00 0.00 66 1038.5
20171023144018 42 160 1.0 5.0 0.00 0.00 0.00 66 1038.5
20171023143516 42 165 1.0 5.0 0.00 0.00 0.00 66 1038.5
20171023143012 42 71 2.0 5.0 0.00 0.00 0.00 67 1038.2
20171023142510 42 80 1.0 5.0 0.00 0.00 0.00 66 1037.9
20171023142030 42 89 1.0 7.0 0.00 0.00 0.00 66 1037.7
20171023141510 41 72 1.0 7.0 0.00 0.00 0.00 66 1037.5
20171023141010 41 360 3.0 7.0 0.00 0.00 0.00 66 1037.4
20171023140527 41 360 3.0 10.0 0.00 0.00 0.00 66 1037.2
20171023140023 41 71 4.0 13.0 0.00 0.00 0.00 66 1036.6
20171023135521 42 360 7.0 13.0 0.00 0.00 0.00 66 1036.3
20171023135021 42 360 5.0 9.0 0.00 0.00 0.00 66 1036.0
20171023134518 42 93 3.0 10.0 0.00 0.00 0.00 66 1035.8
20171023134018 42 75 5.0 10.0 0.00 0.00 0.00 66 1035.5
20171023133520 42 71 6.0 10.0 0.00 0.00 0.00 65 1035.4
20171023133019 42 66 3.0 9.0 0.00 0.00 0.00 65 1035.1
20171023132519 43 87 4.0 9.0 0.00 0.00 0.00 65 1034.9
20171023132014 43 72 4.0 8.0 0.00 0.00 0.00 64 1034.8
20171023131529 43 75 3.0 12.0 0.00 0.00 0.00 63 1034.5
20171023131024 43 88 5.0 12.0 0.00 0.00 0.00 62 1034.5
20171023130519 44 132 4.0 9.0 0.00 0.00 0.00 61 1034.3
20171023130015 44 130 3.0 14.0 0.00 0.00 0.00 60 1034.1
20171023125514 45 133 4.0 14.0 0.00 0.00 0.00 59 1033.9
20171023125012 46 82 6.0 10.0 0.00 0.00 0.00 57 1033.8
20171023124529 47 109 5.0 14.0 0.00 0.00 0.00 55 1033.6
20171023124024 48 132 5.0 14.0 0.00 0.00 0.00 53 1033.3
20171023123524 49 113 5.0 16.0 0.00 0.00 0.00 51 1033.2
20171023123018 51 102 6.0 16.0 0.00 0.00 0.00 48 1033.1
20171023122518 52 96 6.0 13.0 0.00 0.00 0.00 45 1032.6
20171023122012 51 106 1.0 4.0 0.00 0.00 0.00 43 1032.0
20171023121514 51 91 0.0 5.0 0.00 0.00 0.00 44 1031.8
20171023121028 50 360 0.0 3.0 0.00 0.00 0.00 44 1031.6
20171023120526 50 46 1.0 3.0 0.00 0.00 0.00 45 1031.6
20171023120025 50 47 0.0 1.0 0.00 0.00 0.00 45 1031.3
20171023115523 50 46 0.0 2.0 0.00 0.00 0.00 44 1031.3
20171023115026 50 46 0.0 3.0 0.00 0.00 0.00 44 1031.2
20171023114523 50 360 0.0 2.0 0.00 0.00 0.00 45 1030.9
20171023114018 50 47 0.0 1.0 0.00 0.00 0.00 44 1030.7
20171023113516 51 360 0.0 1.0 0.00 0.00 0.00 44 1030.6
20171023113017 51 48 0.0 2.0 0.00 0.00 0.00 44 1030.5
20171023112518 51 49 1.0 2.0 0.00 0.00 0.00 43 1030.2
20171023112020 51 49 0.0 0.0 0.00 0.00 0.00 42 1030.0
20171023111517 51 49 0.0 3.0 0.00 0.00 0.00 42 1030.0
20171023111008 51 360 0.0 3.0 0.00 0.00 0.00 41 1029.9
20171023110528 52 44 0.0 3.0 0.00 0.00 0.00 41 1029.8
20171023110025 52 44 1.0 4.0 0.00 0.00 0.00 41 1029.6
20171023105525 52 46 2.0 3.0 0.00 0.00 0.00 40 1029.4
20171023105019 53 44 0.0 1.0 0.00 0.00 0.00 39 1029.3
20171023104520 53 44 0.0 1.0 0.00 0.00 0.00 39 1029.2
20171023104015 53 44 0.0 2.0 0.00 0.00 0.00 38 1028.9
20171023103516 54 44 0.0 2.0 0.00 0.00 0.00 38 1029.2
20171023103018 54 44 0.0 2.0 0.00 0.00 0.00 37 1029.3
20171023102514 54 48 0.0 2.0 0.00 0.00 0.00 37 1029.3
20171023102028 55 46 0.0 4.0 0.00 0.00 0.00 37 1029.3
20171023101525 55 47 2.0 4.0 0.00 0.00 0.00 36 1029.3
20171023101021 56 46 0.0 0.0 0.00 0.00 0.00 34 1029.1
20171023100525 57 46 0.0 0.0 0.00 0.00 0.00 33 1029.3
20171023100025 57 46 0.0 1.0 0.00 0.00 0.00 32 1029.4
20171023095507 57 46 0.0 4.0 0.00 0.00 0.00 31 1029.4
20171023095010 58 46 2.0 4.0 0.00 0.00 0.00 31 1029.2
20171023094528 58 47 0.0 2.0 0.00 0.00 0.00 30 1029.2
20171023094006 58 48 0.0 5.0 0.00 0.00 0.00 28 1029.1
20171023093527 59 48 2.0 5.0 0.00 0.00 0.00 28 1029.0
20171023093020 59 360 0.0 3.0 0.00 0.00 0.00 28 1028.6
20171023092516 59 49 1.0 9.0 0.00 0.00 0.00 27 1028.7
20171023092011 59 67 4.0 9.0 0.00 0.00 0.00 29 1028.4
20171023091510 59 278 0.0 2.0 0.00 0.00 0.00 28 1028.6
20171023091028 59 278 0.0 3.0 0.00 0.00 0.00 27 1028.5
20171023090523 60 278 0.0 3.0 0.00 0.00 0.00 28 1028.3
20171023090019 60 278 0.0 2.0 0.00 0.00 0.00 27 1028.2
20171023085520 61 278 0.0 7.0 0.00 0.00 0.00 26 1028.4
20171023085016 62 278 2.0 7.0 0.00 0.00 0.00 26 1028.5
20171023084513 62 319 2.0 5.0 0.00 0.00 0.00 26 1028.5
20171023084013 62 271 1.0 15.0 0.00 0.00 0.00 25 1028.2
20171023083513 62 271 3.0 15.0 0.00 0.00 0.00 25 1028.4
20171023083031 62 360 6.0 12.0 0.00 0.00 0.00 25 1028.6
20171023082510 62 277 3.0 16.0 0.00 0.00 0.00 25 1028.3
20171023082008 61 277 5.0 12.0 0.00 0.00 0.00 26 1028.5
20171023081529 61 360 3.0 12.0 0.00 0.00 0.00 26 1028.8
20171023081023 60 294 4.0 12.0 0.00 0.00 0.00 27 1028.2
20171023080519 60 30 2.0 9.0 0.00 0.00 0.00 27 1028.4
20171023080020 60 234 0.0 7.0 0.00 0.00 0.00 26 1028.2
20171023075516 61 360 1.0 6.0 0.00 0.00 0.00 26 1028.5
20171023075013 61 360 1.0 8.0 0.00 0.00 0.00 26 1028.3
20171023074513 62 317 1.0 8.0 0.00 0.00 0.00 26 1028.1
20171023074029 62 360 1.0 8.0 0.00 0.00 0.00 26 1027.8
20171023073524 62 360 5.0 10.0 0.00 0.00 0.00 25 1028.0
20171023073019 62 360 6.0 12.0 0.00 0.00 0.00 25 1027.9
20171023072517 62 360 8.0 12.0 0.00 0.00 0.00 24 1027.9
20171023072017 62 360 6.0 15.0 0.00 0.00 0.00 25 1027.9
20171023071517 62 360 7.0 15.0 0.00 0.00 0.00 25 1027.9
20171023071015 61 360 8.0 14.0 0.00 0.00 0.00 25 1027.6
20171023070516 61 360 9.0 14.0 0.00 0.00 0.00 25 1027.6
20171023070012 61 360 6.0 11.0 0.00 0.00 0.00 26 1027.8
20171023065512 62 360 6.0 11.0 0.00 0.00 0.00 25 1027.6
20171023065028 62 360 4.0 8.0 0.00 0.00 0.00 24 1027.6
20171023064529 62 360 5.0 9.0 0.00 0.00 0.00 24 1027.4
20171023064022 63 360 6.0 10.0 0.00 0.00 0.00 24 1027.3
20171023063522 63 360 5.0 15.0 0.00 0.00 0.00 24 1027.6
20171023063018 63 263 7.0 16.0 0.00 0.00 0.00 23 1027.6
20171023062517 63 360 8.0 18.0 0.00 0.00 0.00 24 1027.6
20171023062017 63 360 10.0 18.0 0.00 0.00 0.00 24 1027.6
20171023061517 62 360 9.0 16.0 0.00 0.00 0.00 24 1027.6
20171023061013 62 360 8.0 13.0 0.00 0.00 0.00 24 1027.9
20171023060513 63 360 4.0 10.0 0.00 0.00 0.00 24 1027.7
20171023060008 63 360 5.0 9.0 0.00 0.00 0.00 24 1027.8
20171023055509 63 360 3.0 11.0 0.00 0.00 0.00 24 1027.6
20171023055026 63 360 7.0 11.0 0.00 0.00 0.00 24 1027.7
20171023054506 63 360 4.0 13.0 0.00 0.00 0.00 24 1027.8
20171023054027 63 287 5.0 17.0 0.00 0.00 0.00 24 1027.6
20171023053507 62 282 9.0 17.0 0.00 0.00 0.00 24 1027.6
20171023053011 61 360 4.0 9.0 0.00 0.00 0.00 25 1027.5
20171023052528 60 261 4.0 10.0 0.00 0.00 0.00 26 1027.4
20171023052021 60 286 5.0 10.0 0.00 0.00 0.00 26 1027.5
20171023051521 60 360 0.0 5.0 0.00 0.00 0.00 26 1027.6
20171023051018 61 267 1.0 5.0 0.00 0.00 0.00 25 1027.6
20171023050516 60 265 1.0 5.0 0.00 0.00 0.00 25 1027.6
20171023050011 60 360 3.0 5.0 0.00 0.00 0.00 26 1027.4
20171023045512 61 273 0.0 5.0 0.00 0.00 0.00 26 1027.8
20171023045029 61 274 2.0 5.0 0.00 0.00 0.00 26 1027.6
20171023044522 61 273 1.0 3.0 0.00 0.00 0.00 26 1027.5
20171023044021 61 273 0.0 2.0 0.00 0.00 0.00 25 1027.5
20171023043521 62 273 0.0 6.0 0.00 0.00 0.00 25 1027.5
20171023043016 62 273 2.0 7.0 0.00 0.00 0.00 24 1027.5
20171023042513 62 360 2.0 7.0 0.00 0.00 0.00 25 1027.5
20171023042009 62 360 0.0 4.0 0.00 0.00 0.00 25 1027.5
20171023041529 62 360 0.0 7.0 0.00 0.00 0.00 24 1027.5
20171023041025 63 360 3.0 10.0 0.00 0.00 0.00 24 1027.7
20171023040527 63 360 7.0 12.0 0.00 0.00 0.00 23 1027.6
20171023040025 64 282 7.0 17.0 0.00 0.00 0.00 23 1027.5
20171023035525 64 360 9.0 17.0 0.00 0.00 0.00 22 1027.4
20171023035021 64 257 8.0 14.0 0.00 0.00 0.00 22 1027.3
20171023034525 64 360 7.0 12.0 0.00 0.00 0.00 23 1027.1
20171023034021 64 360 7.0 19.0 0.00 0.00 0.00 22 1027.0
20171023033521 63 360 8.0 19.0 0.00 0.00 0.00 22 1026.8
20171023033019 63 360 7.0 16.0 0.00 0.00 0.00 23 1026.8
20171023032516 63 360 8.0 16.0 0.00 0.00 0.00 23 1026.8
20171023032014 63 360 9.0 14.0 0.00 0.00 0.00 23 1026.8
20171023031512 63 360 6.0 14.0 0.00 0.00 0.00 23 1027.0
20171023031010 63 360 7.0 14.0 0.00 0.00 0.00 23 1027.0
20171023030507 63 360 7.0 14.0 0.00 0.00 0.00 23 1026.8
20171023030027 63 277 6.0 14.0 0.00 0.00 0.00 23 1026.6
20171023025522 64 360 6.0 14.0 0.00 0.00 0.00 23 1026.6
20171023025020 64 360 6.0 14.0 0.00 0.00 0.00 23 1026.6
20171023024521 64 281 7.0 14.0 0.00 0.00 0.00 22 1026.5
20171023024018 64 360 7.0 17.0 0.00 0.00 0.00 22 1026.5
20171023023519 64 360 8.0 17.0 0.00 0.00 0.00 22 1026.4
20171023023020 64 360 8.0 17.0 0.00 0.00 0.00 22 1026.2
20171023022520 64 360 10.0 17.0 0.00 0.00 0.00 22 1026.2
20171023022015 64 360 8.0 14.0 0.00 0.00 0.00 22 1026.1
20171023021512 64 360 7.0 13.0 0.00 0.00 0.00 22 1025.9
20171023021027 64 360 6.0 14.0 0.00 0.00 0.00 23 1026.1
20171023020527 64 360 7.0 14.0 0.00 0.00 0.00 23 1026.2
20171023020022 64 360 6.0 12.0 0.00 0.00 0.00 23 1026.3
20171023015520 64 360 5.0 13.0 0.00 0.00 0.00 23 1026.3
20171023015015 64 360 8.0 13.0 0.00 0.00 0.00 23 1026.4
20171023014514 63 360 7.0 12.0 0.00 0.00 0.00 24 1026.3
20171023014014 62 255 6.0 9.0 0.00 0.00 0.00 24 1026.2
20171023013514 62 360 1.0 6.0 0.00 0.00 0.00 25 1026.4
20171023013011 62 303 1.0 7.0 0.00 0.00 0.00 25 1026.4
20171023012509 61 360 4.0 7.0 0.00 0.00 0.00 25 1026.5
20171023012009 60 232 1.0 4.0 0.00 0.00 0.00 26 1026.5
20171023011527 60 232 2.0 4.0 0.00 0.00 0.00 26 1026.6
20171023011025 60 232 2.0 4.0 0.00 0.00 0.00 26 1026.5
20171023010522 61 232 0.0 5.0 0.00 0.00 0.00 25 1026.4
20171023010019 61 232 3.0 7.0 0.00 0.00 0.00 25 1026.1
20171023005517 60 232 4.0 7.0 0.00 0.00 0.00 26 1026.1
20171023005017 60 236 5.0 8.0 0.00 0.00 0.00 26 1026.0
20171023004513 60 230 5.0 6.0 0.00 0.00 0.00 26 1025.9
20171023004028 61 236 3.0 5.0 0.00 0.00 0.00 26 1025.9
20171023003529 61 360 0.0 5.0 0.00 0.00 0.00 25 1025.9
20171023003026 62 360 1.0 6.0 0.00 0.00 0.00 25 1026.0
20171023002522 62 237 4.0 6.0 0.00 0.00 0.00 24 1026.0
20171023002016 62 360 2.0 6.0 0.00 0.00 0.00 24 1025.9
20171023001516 62 360 3.0 7.0 0.00 0.00 0.00 24 1025.8
20171023001015 62 360 2.0 7.0 0.00 0.00 0.00 24 1025.9
20171023000517 62 360 0.0 5.0 0.00 0.00 0.00 24 1025.9
20171023000015 63 360 0.0 5.0 0.00 0.00 0.00 24 1025.9
20171022235515 63 360 1.0 3.0 0.00 0.00 0.00 24 1025.8
20171022235011 63 258 0.0 6.0 0.00 0.00 0.00 24 1025.6
20171022234514 63 360 2.0 6.0 0.00 0.00 0.00 23 1025.8
20171022234014 64 234 0.0 3.0 0.00 0.00 0.00 23 1025.6
20171022233510 64 234 0.0 2.0 0.00 0.00 0.00 22 1025.6
20171022233009 65 234 0.0 4.0 0.00 0.00 0.00 21 1025.4
20171022232521 65 234 0.0 5.0 0.00 0.00 0.00 21 1025.3
20171022232020 65 234 3.0 5.0 0.00 0.00 0.00 20 1025.2
20171022231520 65 234 2.0 5.0 0.00 0.00 0.00 20 1025.2
20171022231016 65 242 2.0 6.0 0.00 0.00 0.00 20 1025.3
20171022230511 65 360 3.0 8.0 0.00 0.00 0.00 20 1025.5
20171022230011 65 360 5.0 8.0 0.00 0.00 0.00 20 1025.5
20171022225529 65 360 4.0 6.0 0.00 0.00 0.00 20 1025.4
20171022225027 65 243 3.0 5.0 0.00 0.00 0.00 21 1025.4
20171022224510 65 360 2.0 7.0 0.00 0.00 0.00 20 1025.5
20171022224011 66 360 2.0 7.0 0.00 0.00 0.00 20 1025.5
20171022223512 66 360 4.0 8.0 0.00 0.00 0.00 20 1025.6
20171022223009 66 360 4.0 8.0 0.00 0.00 0.00 20 1025.6
20171022222510 66 360 4.0 8.0 0.00 0.00 0.00 20 1025.5
20171022222025 66 360 5.0 9.0 0.00 0.00 0.00 20 1025.6
20171022221523 66 360 5.0 11.0 0.00 0.00 0.00 20 1025.7
20171022221021 66 244 7.0 11.0 0.00 0.00 0.00 20 1025.6
20171022220525 66 261 6.0 12.0 0.00 0.00 0.00 20 1025.5
20171022220021 66 360 6.0 13.0 0.00 0.00 0.00 19 1025.6
20171022215522 66 261 7.0 13.0 0.00 0.00 0.00 19 1025.6
20171022215020 67 261 4.0 12.0 0.00 0.00 0.00 19 1025.8
20171022214519 68 246 4.0 10.0 0.00 0.00 0.00 20 1025.6
20171022214022 68 242 6.0 10.0 0.00 0.00 0.00 19 1025.4
20171022213520 68 236 3.0 9.0 0.00 0.00 0.00 19 1025.4
20171022213020 68 249 5.0 12.0 0.00 0.00 0.00 19 1025.5
20171022212516 68 247 5.0 12.0 0.00 0.00 0.00 20 1025.6
20171022212020 69 247 3.0 7.0 0.00 0.00 0.00 19 1025.5
20171022211520 70 360 2.0 7.0 0.00 0.00 0.00 19 1025.5
20171022211016 71 229 3.0 7.0 0.00 0.00 0.00 20 1025.4
20171022210512 71 240 4.0 7.0 0.00 0.00 0.00 20 1025.6
20171022210014 70 234 2.0 5.0 0.00 0.00 0.00 19 1025.9
20171022205512 70 225 3.0 5.0 0.00 0.00 0.00 19 1025.9
20171022205009 70 238 1.0 8.0 0.00 0.00 0.00 20 1026.1
20171022204525 69 237 4.0 8.0 0.00 0.00 0.00 20 1026.1
20171022204025 70 236 3.0 8.0 0.00 0.00 0.00 20 1026.3
20171022203520 69 240 4.0 8.0 0.00 0.00 0.00 20 1026.1
20171022203019 70 221 2.0 7.0 0.00 0.00 0.00 21 1026.3
20171022202520 72 220 1.0 9.0 0.00 0.00 0.00 19 1026.1
20171022202021 73 229 2.0 9.0 0.00 0.00 0.00 19 1026.1
20171022201520 72 194 1.0 5.0 0.00 0.00 0.00 21 1026.1
20171022201022 70 217 1.0 5.0 0.00 0.00 0.00 20 1026.2
20171022200521 70 186 3.0 5.0 0.00 0.00 0.00 20 1026.2
20171022200020 69 182 2.0 5.0 0.00 0.00 0.00 22 1026.4
20171022195521 68 169 1.0 4.0 0.00 0.00 0.00 22 1026.4
20171022195020 67 169 1.0 5.0 0.00 0.00 0.00 25 1026.3
20171022194515 66 169 2.0 5.0 0.00 0.00 0.00 23 1026.2
20171022194024 66 47 1.0 4.0 0.00 0.00 0.00 22 1026.4
20171022193519 66 49 0.0 4.0 0.00 0.00 0.00 23 1026.5
20171022193020 67 49 1.0 4.0 0.00 0.00 0.00 22 1026.8
20171022192517 67 49 0.0 2.0 0.00 0.00 0.00 22 1026.8
20171022192013 67 49 0.0 4.0 0.00 0.00 0.00 23 1027.1
20171022191510 69 49 1.0 4.0 0.00 0.00 0.00 23 1027.1
20171022191012 69 49 0.0 5.0 0.00 0.00 0.00 23 1027.1
20171022190508 70 49 0.0 6.0 0.00 0.00 0.00 20 1027.1
20171022190006 70 360 2.0 5.0 0.00 0.00 0.00 22 1027.4
20171022185527 68 360 2.0 5.0 0.00 0.00 0.00 22 1027.6
20171022185026 68 360 0.0 7.0 0.00 0.00 0.00 23 1027.7
20171022184526 68 360 2.0 7.0 0.00 0.00 0.00 24 1027.8
20171022184026 69 360 2.0 5.0 0.00 0.00 0.00 23 1027.9
20171022183521 69 24 1.0 7.0 0.00 0.00 0.00 22 1027.6
20171022183025 67 24 3.0 7.0 0.00 0.00 0.00 24 1027.7
20171022182520 67 26 3.0 6.0 0.00 0.00 0.00 25 1027.8
20171022182015 67 360 1.0 8.0 0.00 0.00 0.00 24 1027.8
20171022181520 66 360 5.0 8.0 0.00 0.00 0.00 24 1027.8
20171022181022 66 360 4.0 7.0 0.00 0.00 0.00 26 1027.9
20171022180517 66 360 2.0 8.0 0.00 0.00 0.00 26 1028.0
20171022180018 67 28 3.0 8.0 0.00 0.00 0.00 26 1027.9
20171022175513 67 360 5.0 8.0 0.00 0.00 0.00 27 1027.9
20171022175011 66 29 1.0 7.0 0.00 0.00 0.00 24 1028.0
20171022174510 66 360 3.0 7.0 0.00 0.00 0.00 26 1027.9
20171022174013 66 30 4.0 7.0 0.00 0.00 0.00 26 1027.9
20171022173516 66 28 4.0 7.0 0.00 0.00 0.00 26 1028.0
20171022173020 65 360 1.0 9.0 0.00 0.00 0.00 25 1028.1
20171022172520 65 24 5.0 9.0 0.00 0.00 0.00 28 1028.2
20171022172017 64 49 2.0 4.0 0.00 0.00 0.00 27 1028.1
20171022171514 62 50 1.0 3.0 0.00 0.00 0.00 27 1028.3
20171022171016 60 360 0.0 5.0 0.00 0.00 0.00 29 1028.3
20171022170511 58 360 2.0 9.0 0.00 0.00 0.00 32 1028.3
20171022170008 57 27 3.0 9.0 0.00 0.00 0.00 36 1028.4
20171022165528 57 25 7.0 9.0 0.00 0.00 0.00 37 1028.4
20171022165024 56 30 1.0 6.0 0.00 0.00 0.00 38 1028.4
20171022164526 55 30 4.0 6.0 0.00 0.00 0.00 39 1028.6
20171022164021 53 30 0.0 7.0 0.00 0.00 0.00 41 1028.8
20171022163517 53 30 4.0 7.0 0.00 0.00 0.00 42 1028.8
20171022163013 52 31 3.0 8.0 0.00 0.00 0.00 43 1028.9
20171022162510 51 11 6.0 8.0 0.00 0.00 0.00 42 1028.9
20171022162024 51 360 0.0 10.0 0.00 0.00 0.00 42 1029.0
20171022161520 50 360 7.0 10.0 0.00 0.00 0.00 41 1029.0
20171022161024 50 360 1.0 4.0 0.00 0.00 0.00 42 1028.9
20171022160524 49 360 1.0 7.0 0.00 0.00 0.00 44 1029.0
20171022160023 47 360 2.0 7.0 0.00 0.00 0.00 49 1029.0
20171022155519 46 38 1.0 6.0 0.00 0.00 0.00 50 1028.9
20171022155019 45 38 0.0 7.0 0.00 0.00 0.00 50 1028.9
20171022154516 45 9 1.0 7.0 0.00 0.00 0.00 52 1029.1
20171022154023 44 360 0.0 4.0 0.00 0.00 0.00 53 1029.3
20171022153512 43 360 1.0 4.0 0.00 0.00 0.00 54 1029.1
20171022153013 42 360 1.0 4.0 0.00 0.00 0.00 55 1029.2
20171022152510 41 22 2.0 4.0 0.00 0.00 0.00 56 1029.1
20171022152029 40 32 0.0 7.0 0.00 0.00 0.00 57 1028.7